Location: Brodeslavy
(49.9527°N, 13.5567°E)
Time: 05:10:41
(UTC+00:00)

Terra - Pass Details

Date: 17 June 2025
Orbit: 689 x 692 km, 98.0° (Epoch: 12 July)

Event Time Altitude Azimuth Distance (km) Brightness Sun altitude
Exits shadow 20:14:21 - 181° (S) 2,932 4.6 -7.3°
Reaches altitude 10° 20:16:22 10° 187° (S) 2,142 3.9 -7.5°
Maximum altitude 20:20:53 47° 261° (W) 914 2.7 -7.9°
Drops below altitude 10° 20:25:27 10° 336° (NNW) 2,159 5.9 -8.4°
Sets 20:27:48 0° 342° (NNW) 3,081 6.8 -8.6°
